USA 176 (DSP 22)

Last updated on Wed Sep 17 2025 00:02:46 GMT+0000 (Coordinated Universal Time)

1 28158U 04004A 25259.35058156 -.00000175 00000+0 00000+0 0 9990 2 28158 11.6872 28.0132 0003281 220.1662 137.3643 1.00272766 30180
UTC large
Height (km)
Speed (km/s)
/
Latitude / Longitude
Inclination (degrees)
Orbital Period (minutes)
Azimuth
Elevation
Range (km)
Doppler Factor

Next 0 passes for location: London (51.5072 / 0.1276)

Sorry there are no passes over London.